Location: Cactus School
(34.5700°N, 118.0931°W)
Time: 19:22:21
(UTC-08:00)

Vanguard 2 - All Passes

Search period start: 17 November 2019 00:00
Search period end: 27 November 2019 00:00
Orbit: 554 x 2937 km, 32.9° (Epoch: 17 November)

Date Brightness Start Highest point End Pass type
(mag) Time Alt. Az. Time Alt. Az. Time Alt. Az.
17 Nov - 05:45:59 10° SSW 05:54:54 21° SSE 06:01:31 10° ESE visible
17 Nov - 07:54:46 10° SW 08:04:54 45° SSE 08:11:08 10° E daylight
17 Nov - 10:06:11 10° WSW 10:13:56 73° S 10:18:48 10° E daylight
17 Nov - 12:17:03 10° W 12:22:14 58° SSW 12:26:12 10° ESE daylight
17 Nov - 14:27:20 10° WSW 14:29:53 16° SSW 14:32:25 10° SSE daylight
18 Nov - 06:02:18 10° SSW 06:13:03 29° SSE 06:20:25 10° E visible
18 Nov - 08:12:31 10° WSW 08:22:57 56° SSE 08:29:10 10° E daylight
18 Nov - 10:24:21 10° W 10:31:55 77° S 10:36:41 10° E daylight
18 Nov - 12:35:12 10° W 12:40:06 45° SSW 12:43:56 10° SE daylight
19 Nov - 04:13:03 10° S 04:20:25 15° SSE 04:26:35 10° ESE visible
19 Nov - 06:19:13 10° SW 06:31:09 37° SSE 06:38:53 10° E daylight
19 Nov - 08:30:29 10° WSW 08:40:58 66° SSE 08:47:07 10° E daylight
19 Nov - 10:42:33 10° W 10:49:54 75° S 10:54:35 10° E daylight
19 Nov - 12:53:25 10° W 12:57:52 32° SSW 13:01:30 10° SE daylight
20 Nov - 04:28:03 10° S 04:38:33 22° SSE 04:46:40 10° ESE visible
20 Nov - 06:36:33 10° SW 06:49:14 46° SSE 06:57:06 10° E daylight
20 Nov - 08:48:37 10° WSW 08:59:00 74° S 09:05:03 10° E daylight
20 Nov - 11:00:46 10° W 11:07:51 69° S 11:12:26 10° ESE daylight
20 Nov - 13:11:51 10° W 13:15:34 22° SSW 13:18:45 10° SSE daylight
21 Nov - 04:44:09 10° SSW 04:56:40 29° SSE 05:05:44 10° E visible
21 Nov - 06:54:12 10° SW 07:07:18 56° SSE 07:15:11 10° E daylight
21 Nov - 09:06:51 10° W 09:17:01 79° S 09:22:58 10° E daylight
21 Nov - 11:18:58 10° W 11:25:45 58° SSW 11:30:13 10° ESE daylight
21 Nov - 13:30:46 10° WSW 13:33:12 14° SW 13:35:24 10° S daylight
22 Nov - 02:55:59 10° S 03:03:36 15° SE 03:10:20 10° ESE visible
22 Nov - 05:00:53 10° SSW 05:14:46 38° SSE 05:24:19 10° E visible
22 Nov - 07:12:07 10° WSW 07:25:22 66° SSE 07:33:11 10° E daylight
22 Nov - 09:25:08 10° W 09:35:03 80° S 09:40:52 10° E daylight
22 Nov - 11:37:12 10° W 11:43:33 45° SSW 11:47:53 10° SE daylight
23 Nov - 03:10:28 10° S 03:21:40 21° SE 03:30:57 10° ESE visible
23 Nov - 05:18:03 10° SW 05:32:50 46° SSE 05:42:38 10° E visible
23 Nov - 07:30:14 10° WSW 07:43:26 73° S 07:51:07 10° E daylight
23 Nov - 09:43:25 10° W 09:53:03 76° S 09:58:44 10° ESE daylight
23 Nov - 11:55:32 10° W 12:01:15 33° SSW 12:05:21 10° SE daylight
24 Nov - 03:26:16 10° SSW 03:39:41 28° SSE 03:50:19 10° E visible
24 Nov - 05:35:34 10° SW 05:50:56 56° SSE 06:00:47 10° E visible
24 Nov - 07:48:28 10° WSW 08:01:31 79° S 08:09:04 10° E daylight
24 Nov - 10:01:42 10° W 10:11:01 69° SSW 10:16:34 10° ESE daylight
24 Nov - 12:14:04 10° W 12:18:50 23° SW 12:22:29 10° SSE daylight
25 Nov - 01:40:14 10° SSE 01:46:27 13° SE 01:52:19 10° ESE visible
25 Nov - 03:42:45 10° SSW 03:57:43 36° SSE 04:09:06 10° E visible
25 Nov - 05:53:22 10° WSW 06:09:01 65° SSE 06:18:50 10° E visible
25 Nov - 08:06:48 10° W 08:19:36 82° S 08:26:59 10° E daylight
25 Nov - 10:20:00 10° W 10:28:54 58° SSW 10:34:19 10° ESE daylight
25 Nov - 12:33:07 10° WSW 12:36:20 15° SW 12:39:01 10° S daylight
26 Nov - 01:53:41 10° S 02:04:23 19° SE 02:14:06 10° ESE visible
26 Nov - 03:59:44 10° SW 04:15:44 45° SSE 04:27:33 10° E visible
26 Nov - 06:11:23 10° WSW 06:27:07 72° SSE 06:36:50 10° E visible
26 Nov - 08:25:09 10° W 08:37:40 81° S 08:44:54 10° E daylight
26 Nov - 10:38:18 10° W 10:46:41 46° SSW 10:51:55 10° SE daylight
